Flag for Germany Weather past 2 weeks in Neuwied, Rhineland-Palatinate, Germany

Now
50 °F

Cool.


Feels Like: 48 °F
Forecast: 38 / 56 °F
Wind: 5 mph from West

Location: Buechel


UV Index: 3 (Moderate)

Visibility: N/A


Pressure: 29.95 "Hg

Humidity: 47%

Dew point: 30 °F

Location of NeuwiedLocation

Historic Weather in Neuwied

°F

Neuwied temperature yesterday

Maximum temperature yesterday: 59 °F (at 5:20 PM)
Minimum temperature yesterday: 39 °F (at 4:20 AM)
Average temperature yesterday: 48 °F

Past Weeks' High & Low Weather Summary

 TemperatureHumidityPressure
High68 °F (Apr 3, 2:20 PM)100% (Apr 6, 4:20 AM)30.39 "Hg (Apr 6, 4:20 AM)
Low34 °F (Apr 16, 3:20 AM)27% (Apr 17, 6:20 PM)29.65 "Hg (Apr 3, 3:20 AM)
Average51 °F67%30.05 "Hg
* Reported Apr 2 11:20 PM — Apr 17 11:20 PM, Neuwied, Weather by CustomWeather, © 2014

Note: Actual official high and low records may vary slightly from our data, if they occured in-between our weather recording intervals... More about our weather records

Advertising

Historic Weather Conditions — Data for Previous 24 hours

 ConditionsComfort  
Time TempWeatherWind HumidityBarometerVisibility
11:20 PM
Apr 17
50 °FCool.5 mph47%29.95 "HgN/A
10:20 PM52 °FCool.7 mph41%29.95 "HgN/A
9:20 PM54 °FCool.7 mph38%29.95 "HgN/A
8:20 PM54 °FCool.7 mph38%29.98 "HgN/A
6:20 PM59 °FRefreshingly cool.8 mph27%30.01 "HgN/A
5:20 PM59 °FRefreshingly cool.8 mph34%30.04 "HgN/A
4:20 PM57 °FPartly sunny.7 mph31%30.07 "HgN/A
3:20 PM57 °FPartly sunny.6 mph33%30.09 "HgN/A
2:20 PM54 °FPartly sunny.8 mph38%30.12 "HgN/A
1:20 PM54 °FPartly sunny.7 mph41%30.15 "HgN/A
12:20 PM52 °FScattered clouds.8 mph41%30.18 "HgN/A
11:20 AM50 °FScattered clouds.9 mph43%30.21 "HgN/A
10:20 AM46 °FScattered clouds.6 mph53%30.21 "HgN/A
9:20 AM43 °FPassing clouds.7 mph61%30.24 "HgN/A
8:20 AM41 °FPassing clouds.5 mph61%30.24 "HgN/A
7:20 AM39 °FPassing clouds.3 mph65%30.24 "HgN/A
6:20 AM39 °FPassing clouds.3 mph61%30.24 "HgN/A
5:20 AM39 °FPassing clouds.3 mph65%30.27 "HgN/A
4:20 AM39 °FPassing clouds.5 mph65%30.27 "HgN/A
3:20 AM41 °FQuite cool.5 mph61%30.27 "HgN/A
2:20 AM41 °FQuite cool.5 mph61%30.30 "HgN/A
1:20 AM43 °FQuite cool.5 mph57%30.30 "HgN/A
12:20 AM43 °FQuite cool.5 mph57%30.30 "HgN/A
Weather by CustomWeather, © 2014

See weather overview